Kingstree, SC

1:22 AM EST on December 11, 2019 (GMT -0500)
Williamsburg County

Weather History for KCKI - October, 2019

Change the Weather History Date:

Thursday, October 10, 2019

  Actual Average Record
Temperature  
Mean Temperature 65 °F -  
Max Temperature 77 °F 78 °F 89 °F (2017)
Min Temperature 53 °F 50 °F 44 °F (2012)
Growing Degree Days 15 (Base 50)    
Moisture  
Dew Point 54 °F    
Average Humidity 74    
Maximum Humidity 100    
Minimum Humidity 36    
Precipitation  
Precipitation 0.00 in - - ()
Sea Level Pressure  
Sea Level Pressure 30.15 in    
Wind  
Wind Speed 1 mph ()    
Max Wind Speed 8 mph    
Max Gust Speed -    
Visibility 8.2 miles    
Events      
Averages and records for this station are not official NWS values.
T = Trace of Precipitation, MM = Missing Value Source: Averaged Metar Reports

Daily Weather History Graph

Daily Weather History Graph

Search for Another Location

Airport or City:

Astronomy

Oct. 10, 2019 Rise Set
Actual Time 7:20 AM EDT 6:52 PM EDT
Civil Twilight 6:55 AM EDT 7:17 PM EDT
Nautical Twilight 6:26 AM EDT 7:45 PM EDT
Astronomical Twilight 5:57 AM EDT 8:14 PM EDT
Moon 5:41 PM EDT (10/10) 4:15 AM EDT (10/10)
Length of Visible Light 12h 21m
Length of Day
11h 31m
Waxing Gibbous, 91% of the Moon is Illuminated
Oct 10
Waxing Gibbous
Oct 13
Full
Oct 21
Last Quarter
Oct 27
New
Nov 4
First Quarter

Hourly Weather History & Observations

Time (EDT) Temp. Dew Point Humidity Pressure Visibility Wind Dir Wind Speed Gust Speed Precip Events Conditions
12:15 AM 60.8 °F 60.8 °F 100% 30.16 in 7.0 mi Calm Calm - N/A   Clear
12:35 AM 60.8 °F 59.0 °F 94% 30.15 in 7.0 mi Calm Calm - N/A   Clear
12:55 AM 60.8 °F 59.0 °F 94% 30.15 in 10.0 mi Calm Calm - N/A   Clear
1:15 AM 60.8 °F 59.0 °F 94% 30.15 in 10.0 mi Calm Calm - N/A   Clear
1:35 AM 60.8 °F 59.0 °F 94% 30.15 in 10.0 mi Calm Calm - N/A   Clear
1:55 AM 59.0 °F 59.0 °F 100% 30.15 in 10.0 mi Calm Calm - N/A   Clear
2:15 AM 59.0 °F 57.2 °F 94% 30.15 in 10.0 mi Calm Calm - N/A   Clear
2:35 AM 59.0 °F 57.2 °F 94% 30.15 in 10.0 mi Calm Calm - N/A   Clear
2:55 AM 57.2 °F 55.4 °F 94% 30.14 in 7.0 mi Calm Calm - N/A   Clear
3:15 AM 57.2 °F 55.4 °F 94% 30.14 in 7.0 mi Calm Calm - N/A   Clear
3:35 AM 55.4 °F 55.4 °F 100% 30.14 in 7.0 mi Calm Calm - N/A   Clear
3:55 AM 55.4 °F 55.4 °F 100% 30.14 in 7.0 mi Calm Calm - N/A   Clear
4:15 AM 55.4 °F 53.6 °F 94% 30.14 in 7.0 mi Calm Calm - N/A   Scattered Clouds
4:35 AM 55.4 °F 55.4 °F 100% 30.14 in 7.0 mi Calm Calm - N/A   Mostly Cloudy
4:55 AM 55.4 °F 55.4 °F 100% 30.14 in 7.0 mi Calm Calm - N/A   Overcast
5:15 AM 57.2 °F 55.4 °F 94% 30.14 in 7.0 mi Calm Calm - N/A   Overcast
5:35 AM 57.2 °F 55.4 °F 94% 30.15 in 7.0 mi Calm Calm - N/A   Overcast
5:55 AM 57.2 °F 55.4 °F 94% 30.16 in 7.0 mi Calm Calm - N/A   Overcast
6:15 AM 59.0 °F 55.4 °F 88% 30.16 in 10.0 mi Calm Calm - N/A   Overcast
6:35 AM 59.0 °F 55.4 °F 88% 30.17 in 7.0 mi Calm Calm - N/A   Overcast
6:55 AM 59.0 °F 57.2 °F 94% 30.17 in 7.0 mi Calm Calm - N/A   Overcast
7:15 AM 59.0 °F 57.2 °F 94% 30.18 in 7.0 mi Calm Calm - N/A   Overcast
7:35 AM 59.0 °F 57.2 °F 94% 30.18 in 7.0 mi Calm Calm - N/A   Overcast
7:55 AM 59.0 °F 59.0 °F 100% 30.18 in 5.0 mi Calm Calm - N/A   Overcast
8:15 AM 59.0 °F 59.0 °F 100% 30.19 in 7.0 mi Calm Calm - N/A   Overcast
8:35 AM 60.8 °F 59.0 °F 94% 30.19 in 7.0 mi Calm Calm - N/A   Overcast
9:15 AM 60.8 °F 59.0 °F 94% 30.20 in 7.0 mi Calm Calm - N/A   Overcast
9:35 AM 62.6 °F 57.2 °F 82% 30.20 in 7.0 mi NNE 5.8 mph - N/A   Mostly Cloudy
9:55 AM 62.6 °F 57.2 °F 82% 30.21 in 7.0 mi North 5.8 mph - N/A   Mostly Cloudy
10:15 AM 64.4 °F 55.4 °F 73% 30.20 in 7.0 mi NE 4.6 mph - N/A   Scattered Clouds
10:35 AM 64.4 °F 55.4 °F 73% 30.21 in 10.0 mi North 6.9 mph - N/A   Scattered Clouds
10:55 AM 68.0 °F 53.6 °F 60% 30.20 in 7.0 mi NNE 8.1 mph - N/A   Clear
11:15 AM 68.0 °F 53.6 °F 60% 30.19 in 10.0 mi NNE 4.6 mph - N/A   Clear
11:35 AM 69.8 °F 51.8 °F 53% 30.19 in 5.0 mi North 6.9 mph - N/A   Haze
11:55 AM 69.8 °F 51.8 °F 53% 30.18 in 10.0 mi NNE 4.6 mph - N/A   Clear
12:15 PM 71.6 °F 51.8 °F 50% 30.18 in 10.0 mi North 6.9 mph - N/A   Clear
12:35 PM 71.6 °F 51.8 °F 50% 30.17 in 7.0 mi North 3.5 mph - N/A   Clear
12:55 PM 71.6 °F 51.8 °F 50% 30.16 in 7.0 mi Calm Calm - N/A   Clear
1:15 PM 73.4 °F 51.8 °F 47% 30.14 in 7.0 mi Calm Calm - N/A   Clear
1:35 PM 73.4 °F 51.8 °F 47% 30.14 in 7.0 mi NNE 6.9 mph - N/A   Clear
1:55 PM 73.4 °F 51.8 °F 47% 30.13 in 7.0 mi Calm Calm - N/A   Clear
2:35 PM 75.2 °F 51.8 °F 44% 30.12 in 7.0 mi NNE 3.5 mph - N/A   Clear
2:55 PM 75.2 °F 51.8 °F 44% 30.11 in 7.0 mi NNW 4.6 mph - N/A   Clear
3:15 PM 77.0 °F 51.8 °F 41% 30.11 in 10.0 mi NNW 6.9 mph - N/A   Clear
3:35 PM 77.0 °F 50.0 °F 39% 30.11 in 7.0 mi Calm Calm - N/A   Clear
3:55 PM 75.2 °F 50.0 °F 41% 30.11 in 10.0 mi Calm Calm - N/A   Clear
4:15 PM 77.0 °F 50.0 °F 39% 30.09 in 7.0 mi NW 5.8 mph - N/A   Clear
4:35 PM 77.0 °F 48.2 °F 36% 30.09 in 7.0 mi North 3.5 mph - N/A   Clear
5:15 PM 75.2 °F 46.4 °F 36% 30.10 in 7.0 mi NNE 3.5 mph - N/A   Clear
5:35 PM 75.2 °F 46.4 °F 36% 30.11 in 10.0 mi North 4.6 mph - N/A   Clear
5:55 PM 73.4 °F 46.4 °F 38% 30.10 in 5.0 mi Calm Calm - N/A   Haze
6:15 PM 73.4 °F 46.4 °F 38% 30.11 in 7.0 mi Calm Calm - N/A   Clear
6:35 PM 71.6 °F 44.6 °F 38% 30.11 in 7.0 mi Calm Calm - N/A   Clear
6:55 PM 69.8 °F 44.6 °F 40% 30.11 in 10.0 mi Calm Calm - N/A   Clear
7:15 PM 64.4 °F 48.2 °F 56% 30.11 in 10.0 mi Calm Calm - N/A   Clear
7:35 PM 62.6 °F 50.0 °F 63% 30.11 in 10.0 mi Calm Calm - N/A   Clear
7:55 PM 60.8 °F 51.8 °F 72% 30.11 in 7.0 mi Calm Calm - N/A   Clear
8:15 PM 59.0 °F 51.8 °F 77% 30.11 in 10.0 mi Calm Calm - N/A   Clear
8:35 PM 59.0 °F 51.8 °F 77% 30.12 in 10.0 mi Calm Calm - N/A   Clear
8:55 PM 62.6 °F 50.0 °F 63% 30.12 in 10.0 mi Calm Calm - N/A   Clear
9:15 PM 60.8 °F 51.8 °F 72% 30.12 in 10.0 mi Calm Calm - N/A   Clear
9:35 PM 60.8 °F 51.8 °F 72% 30.13 in 10.0 mi Calm Calm - N/A   Clear
9:55 PM 60.8 °F 53.6 °F 77% 30.14 in 10.0 mi Calm Calm - N/A   Clear
10:15 PM 59.0 °F 53.6 °F 82% 30.14 in 10.0 mi Calm Calm - N/A   Clear
10:35 PM 60.8 °F 55.4 °F 82% 30.14 in 10.0 mi Calm Calm - N/A   Clear
10:55 PM 59.0 °F 55.4 °F 88% 30.14 in 10.0 mi Calm Calm - N/A   Clear
11:15 PM 55.4 °F 55.4 °F 100% 30.14 in 10.0 mi Calm Calm - N/A   Clear
11:35 PM 53.6 °F 51.8 °F 94% 30.14 in 10.0 mi Calm Calm - N/A   Clear
11:55 PM 53.6 °F 51.8 °F 94% 30.14 in 10.0 mi Calm Calm - N/A   Clear